Tracking 29487 objects as of 11-Sep-2024
HD Live streaming from Space Station
objects crossing your sky now

FENGYUN 1C DEB

Track FENGYUN 1C DEB now!
10-day predictions


NORAD ID: 31611
Int'l Code: 1999-025BZR
Perigee: 594.1 km
Apogee: 676.6 km
Inclination: 99.0 °
Period: 97.3 minutes
Semi major axis: 7006 km
RCS: 0.0063 m2 (small)
Launch date: May 10, 1999
Source: People's Republic of China (PRC)
Launch site: Taiyaun Space Center, China (TSC)

Note: This is SATELLITE DEBRIS
Your satellite tracking list
Your tracking list is empty




NASA's NSSDC Master Catalog

Two Line Element Set (TLE):
1 31611U 99025BZR 24249.71138769  .00149990  00000-0  18716-1 0  9996
2 31611  98.9591 153.4162 0058869 139.1609 281.0430 14.80338976604919
Source of the keplerian elements: AFSPC